KD9AQS Weather Reports


time (UTC)temp
F
wind
direction
speed
knots
gust
knots
rain 1hr
in
rain 24hr
in
rain mn
in
humidity
%
barometer
mb
20260504014600 54 184 0.0 0.0 0.00 0.00 0.00 66 1016.2
20260504013111 55 184 0.0 0.0 0.00 0.00 0.00 65 1016.3
20260504011557 56 184 0.0 0.0 0.00 0.00 0.00 63 1016.0
20260504010112 57 184 0.0 0.9 0.00 0.00 0.00 61 1016.1
20260504004625 59 186 0.9 1.7 0.00 0.00 0.00 59 1016.0
20260504003056 60 186 0.0 2.6 0.00 0.00 0.00 57 1015.8
20260504001606 62 186 0.0 0.9 0.00 0.00 0.00 53 1016.0
20260504000055 64 186 0.0 1.7 0.00 0.00 0.00 49 1016.0
20260503234552 65 187 0.0 2.6 0.00 0.00 0.00 44 1016.1
20260503233052 66 180 0.0 1.7 0.00 0.00 0.00 43 1016.2
20260503231650 66 185 1.7 5.2 0.00 0.00 0.00 42 1016.2
20260503230057 67 235 0.9 3.5 0.00 0.00 0.00 41 1016.4
20260503224547 66 244 1.7 6.1 0.00 0.00 0.00 38 1016.6
20260503223051 66 239 3.5 7.0 0.00 0.00 0.00 39 1016.7
20260503221545 66 285 1.7 9.6 0.00 0.00 0.00 40 1016.8
20260503220043 66 217 0.0 7.0 0.00 0.00 0.00 41 1016.8
20260503214541 66 183 0.9 7.8 0.00 0.00 0.00 38 1017.0
20260503213056 66 225 0.9 5.2 0.00 0.00 0.00 38 1017.2
20260503211536 65 292 3.5 8.7 0.00 0.00 0.00 38 1017.4
20260503210041 65 127 0.9 7.8 0.00 0.00 0.00 39 1017.4
20260503204547 65 192 2.6 6.1 0.00 0.00 0.00 41 1017.7
20260503203035 65 275 3.5 7.8 0.00 0.00 0.00 42 1017.9
20260503201533 65 212 2.6 5.2 0.00 0.00 0.00 43 1018.0
20260503200034 64 242 2.6 11.3 0.00 0.00 0.00 39 1018.4
20260503194532 65 269 1.7 6.1 0.00 0.00 0.00 44 1018.5
20260503193100 64 200 0.9 6.1 0.00 0.00 0.00 43 1018.8
20260503191615 63 277 2.6 6.1 0.00 0.00 0.00 45 1018.8
20260503190057 64 261 2.6 7.8 0.00 0.00 0.00 46 1019.0
20260503184558 62 313 0.9 5.2 0.00 0.00 0.00 46 1019.3
20260503183110 63 300 1.7 7.8 0.00 0.00 0.00 43 1019.3
20260503181548 62 130 0.9 5.2 0.00 0.00 0.00 46 1019.6
20260503180047 61 130 0.9 6.1 0.00 0.00 0.00 46 1019.8
20260503174544 60 100 2.6 8.7 0.00 0.00 0.00 44 1019.9
20260503173109 61 331 1.7 6.1 0.00 0.00 0.00 48 1020.0
20260503171545 60 38 2.6 7.0 0.00 0.00 0.00 48 1020.3
20260503081536 46 329 0.9 3.5 0.00 0.00 0.00 82 1018.5
20260503071524 48 329 0.0 2.6 0.00 0.00 0.00 77 1018.0
20260503054524 48 351 0.0 0.9 0.00 0.00 0.00 75 1017.8
20260503053013 49 351 0.0 0.0 0.00 0.00 0.00 74 1017.7
20260503051511 49 351 0.0 0.9 0.00 0.00 0.00 70 1017.7
20260503050010 50 351 0.0 2.6 0.00 0.00 0.00 70 1017.7
20260503044506 51 355 0.0 1.7 0.00 0.00 0.00 67 1017.6
20260503043002 52 355 0.0 0.0 0.00 0.00 0.00 64 1017.4
20260503041608 52 355 0.0 0.0 0.00 0.00 0.00 62 1017.3
20260503040059 53 351 1.7 7.0 0.00 0.00 0.00 61 1017.4
20260503034608 54 332 2.6 5.2 0.00 0.00 0.00 60 1017.4
20260503033100 54 327 3.5 8.7 0.00 0.00 0.00 58 1017.6
20260503031555 54 320 4.3 8.7 0.00 0.00 0.00 58 1017.5
20260503030056 55 360 0.0 3.5 0.00 0.00 0.00 59 1017.3
20260503024554 55 327 0.0 4.3 0.00 0.00 0.00 58 1017.1
20260503023049 55 348 0.9 5.2 0.00 0.00 0.00 57 1016.8
20260503021547 55 31 0.9 7.8 0.00 0.00 0.00 55 1016.4
20260503020047 55 46 0.0 5.2 0.00 0.00 0.00 56 1016.2